sat.trackr.live / text

‹ back to catalog

WEINA 1A

NORAD 43169 · 2018-011A

PAYLOAD ACTIVE UNKNOWN

§ Identity

Operator
Country
PRC
Launch date
2018-01-25
Launch site
XICLF
Launch vehicle
Mass (kg)
RCS (m²)

External: N2YO · Heavens-Above · Gunter

§ Orbital elements

Epoch: 2026-09-09T09:29:33.111168Z

Period
95.92 min
Inclination
34.9967°
Eccentricity
0.0002120
Mean motion
15.01274712 rev/d
Perigee alt
561.5 km
Apogee alt
564.4 km
Semi-major
6,941.1 km
B*
1.2004e-4
RAAN
9.8750°
Arg perigee
46.6375°
Mean anomaly
313.4509°
Rev number
47,078

§ Raw data

WEINA 1A1 43169U 18011A   26252.39552212  .00001545  00000+0  12004-3 0  99942 43169  34.9967   9.8750 0002120  46.6375 313.4509 15.01274712470789

JSON: /api/v1/satellites/43169 · /tle

For live sub-satellite position, see the globe view (requires WebGL).

§ Visibility from observer

Set your observer location to see the next 7 days of passes ≥ 10°. The values pass through the URL so the page stays shareable.

No JS? Fill the form by hand. The geolocation button needs JavaScript.